STARLINK-1480, 45741

Orbit data source: Space-Track

STARLINK-1480, 45741 is a payload satellite owned by SpaceX/Seattle (US) in LEO that was launched on Sat, 13 Jun 2020 UTC via an FALCON 9 launch vehicle from the Air Force Eastern Test Range (AFETR). Payload-class satellites include a variety of spacecraft equipped with specific instruments for various scientific and technological missions. These include communications satellites like Starlink; space stations such as the ISS; scientific satellites like the Hubble; Earth observation satellites from companies like Planet Labs, Umbra, and HawkEye 360; GPS; miniature CubeSats for education and research; and military/defense satellites.

Loading next visibility...
Identifier
45741, 2020-038M
Orbit
LEO
Country
Flag of USUS
Related business
Manufacturer
SpaceX/Seattle
Mission
Operational Commercial Communications
Bus & Motor
STARLINK, Unknown motor
Mass
260 kg wet, ~248 kg dry
Launch date (UTC)
2020-06-13 (5 years ago)
Launch vehicle
FALCON 9
Launch site
Air Force Eastern Test Range (AFETR)
Object type
Payload
Rocket body
Debris
Shape & HBR
Box + 1 Pan, 10.1 m
Radar Cross Section
13.562 m², Large (>1 m²)

Expand to show TLE details & history
Last TLE update: 16 hours ago

TLE from 16 hours ago
0 STARLINK-1480
1 45741U 20038M   25286.40653462 -.00000697  00000-0 -27887-4 0  9997
2 45741  53.0533 177.8007 0001861  92.9069 267.2133 15.06386162294000
Epoch: 2025-10-13T09:45Z
TLE epoch observation values (Epoch: 2025-10-13T09:45:24.591Z)
Latitude
-0°
Longitude
9.23847°
Altitude
548.196 km
Speed
7.589 km/s
True Right ascension
11h 51m 12s
True Declination
0° 00' 00"
Sunlit
Object was in daylight at epoch
Visualization orbit readout
Latitude
Unknown
Longitude
Unknown
Altitude
Unknown
Speed
Unknown
Apparent Right ascension
Unknown
Apparent Declination
Unknown
Sunlit
N/A
Visualization observer readout
Local Sidereal Time
20:34:17
Azimuth
Unknown
Elevation
Unknown
Doppler factor
Unknown
Orbital elements
Apogee altitude
548.814 km
Perigee altitude
546.236 km
Semi-major axis
6,925.662 km
Eccentricity
0.00019
Inclination
53.0533°
RAAN
177.8007°
Arg. of periapsis
92.9069°
True anomaly
267.192°
Mean anomaly
267.2133°
Eccentric anomaly
267.20265°
Mean motion
3.76575 °/min
Orbital period
95.6 mins
BSTAR
-0.000027887
Loading maneuver chart data...
Computing Atmospheric mass density...
Loading historical data...
Loading historical data...
Loading historical data...
Loading historical data...
Loading historical data...
Loading historical data...
Loading historical data...

Documentation

Showing up to 5 results
|